This demonstration page uses our WeatherBlox Daily Observations layout. Learn more.

38.80484, -77.04692

Hourly Observations for April 9, 2019

Temp ( °F °C ) Dew Point ( °F °C ) Humidity (%) Winds ( mph kmh ) Pressure ( in mb ) Visibility ( mi km ) Precip ( " mm )
12:52 am 00:52 Cloudy with Light Rain 63 17.2 60 15.6 90 90 S 9 15 29.79 1009 10 16.0934 0 0.0254
1:52 am 01:52 Cloudy 63 17.2 60 15.6 90 90 SE 3 6 29.76 1008 10 16.0934 0.01 0.254
2:52 am 02:52 Cloudy 63 17.2 60 15.6 90 90 S 6 9 29.74 1007 10 16.0934 0 0
3:52 am 03:52 Cloudy 62 16.7 60 15.6 93 93 S 6 9 29.73 1007 7 11.26538 0 0
4:52 am 04:52 Cloudy with Mist and Fog 62 16.7 60 15.6 93 93 S 6 9 29.7 1006 6 9.65604 0 0
5:52 am 05:52 Cloudy 61 16.1 59 15 93 93 S 6 9 29.7 1006 8 12.87472 0 0
6:52 am 06:52 Cloudy with Mist and Fog 61 16.1 59 15 93 93 S 5 7 29.71 1006 4 6.43736 0 0
7:52 am 07:52 Cloudy 62 16.7 60 15.6 93 93 Calm 29.71 1006 8 12.87472 0 0
8:52 am 08:52 Mostly Cloudy 64 17.8 61 16.1 90 90 S 5 7 29.7 1006 9 14.48406 0 0
9:52 am 09:52 Cloudy 68 20 59 15 73 73 Calm 29.69 1005 10 16.0934 0 0
10:52 am 10:52 Cloudy 71 21.7 57 13.9 61 61 VRB 3 6 29.69 1005 10 16.0934 0 0
11:52 am 11:52 Cloudy 73 22.8 55 12.8 53 53 WSW 8 13 29.68 1005 10 16.0934 0 0
12:52 pm 12:52 Cloudy 75 23.9 54 12.2 48 48 W 12 19 29.65 1004 10 16.0934 0 0
1:52 pm 13:52 Cloudy 76 24.4 54 12.2 47 47 VRB 6 9 29.62 1003 10 16.0934 0 0
2:52 pm 14:52 Cloudy 78 25.6 52 11.1 40 40 WSW 8 13 29.6 1002 10 16.0934 0 0
3:52 pm 15:52 Mostly Cloudy 78 25.6 52 11.1 40 40 SW 10 17 29.56 1001 10 16.0934 0 0
4:52 pm 16:52 Mostly Cloudy 80 26.7 52 11.1 38 38 SW 10 17 29.54 1000 10 16.0934 0 0
5:52 pm 17:52 Mostly Cloudy 80 26.7 48 8.9 33 33 WSW 16 26 29.53 1000 10 16.0934 0 0
6:52 pm 18:52 Mostly Cloudy 80 26.7 44 6.7 28 28 WNW 16 26 29.56 1001 10 16.0934 0 0
7:52 pm 19:52 Mostly Cloudy 77 25 45 7.2 32 32 NW 15 24 29.58 1002 10 16.0934 0 0
8:52 pm 20:52 Partly Cloudy 74 23.3 34 1.1 23 23 NNW 23 37 29.62 1003 10 16.0934 0 0
9:52 pm 21:52 Mostly Cloudy 71 21.7 24 -4.4 17 17 NNW 16 26 29.67 1005 10 16.0934 0 0
10:52 pm 22:52 Cloudy 68 20 23 -5 18 18 NNW 15 24 29.7 1006 10 16.0934 0 0
11:52 pm 23:52 Cloudy 65 18.3 25 -3.9 22 22 N 12 19 29.72 1007 10 16.0934 0 0

Powered by AerisWeather